Weather History for Mount Sterling, KY

Change the Weather History Date:

Friday, February 8, 2013

  Actual Average Record
Temperature  
Mean Temperature 40 °F -  
Max Temperature 46 °F 39 °F 46 °F (2013)
Min Temperature 33 °F 20 °F 17 °F (2014)
Degree Days  
Heating Degree Days 26    
Moisture  
Dew Point 34 °F    
Average Humidity 86    
Maximum Humidity 100    
Minimum Humidity 66    
Precipitation  
Precipitation 0.00 in - - ()
Sea Level Pressure  
Sea Level Pressure 30.08 in    
Wind  
Wind Speed 8 mph (NW)    
Max Wind Speed 16 mph    
Max Gust Speed 25 mph    
Visibility 10 miles    
Events Rain    
Averages and records for this station are not official NWS values.
T = Trace of Precipitation, MM = Missing Value Source: NWS Daily Summary

Daily Weather History Graph

Daily Weather History Graph

Search for Another Location

Airport:

Trip Planner

Search our weather history database for the weather conditions in past years. The results will help you decide how hot, cold, wet, or windy it might be!

Date:

Astronomy

Feb. 08, 2013 Rise Set
Actual Time 7:33 AM EST 6:07 PM EST
Civil Twilight 7:06 AM EST 6:34 PM EST
Nautical Twilight 6:35 AM EST 7:05 PM EST
Astronomical Twilight 6:04 AM EST 7:36 PM EST
Moon 6:00 AM EST (2/8) 4:40 PM EST (2/8)
Length of Visible Light 11h 28m
Length of Day
10h 33m
Waning Crescent, 3% of the Moon is Illuminated
Feb 8
Waning Crescent
Feb 10
New
Feb 17
First Quarter
Feb 25
Full
Mar 4
Last Quarter

Hourly Weather History & Observations

Time (EST) Temp. Windchill Dew Point Humidity Pressure Visibility Wind Dir Wind Speed Gust Speed Precip Events Conditions
12:15 AM 46.4 °F 42.4 °F 35.6 °F 66% 29.88 in 10.0 mi SSW 8.1 mph - N/A   Clear
12:35 AM 44.6 °F 42.2 °F 35.6 °F 71% 29.89 in 10.0 mi SW 4.6 mph - N/A   Clear
12:55 AM 44.6 °F 41.4 °F 35.6 °F 71% 29.88 in 10.0 mi SW 5.8 mph - N/A   Clear
1:15 AM 44.6 °F 42.2 °F 35.6 °F 71% 29.88 in 10.0 mi SW 4.6 mph - N/A   Clear
1:35 AM 44.6 °F 40.7 °F 35.6 °F 71% 29.87 in 10.0 mi SW 6.9 mph - N/A   Clear
1:55 AM 44.6 °F 41.4 °F 37.4 °F 76% 29.87 in 10.0 mi SW 5.8 mph - N/A   Mostly Cloudy
2:15 AM 46.4 °F 43.5 °F 39.2 °F 76% 29.86 in 10.0 mi SW 5.8 mph - N/A   Overcast
2:35 AM 46.4 °F 42.9 °F 41.0 °F 81% 29.85 in 10.0 mi SW 6.9 mph - N/A   Overcast
3:15 AM 46.4 °F 42.9 °F 41.0 °F 81% 29.85 in 10.0 mi WSW 6.9 mph - N/A   Overcast
3:35 AM 46.4 °F 43.5 °F 41.0 °F 81% 29.84 in 10.0 mi SW 5.8 mph - N/A   Overcast
3:55 AM 46.4 °F 43.5 °F 41.0 °F 81% 29.84 in 10.0 mi WSW 5.8 mph - N/A   Overcast
4:35 AM 46.4 °F 41.5 °F 42.8 °F 87% 29.84 in 10.0 mi West 10.4 mph - N/A Rain Light Rain
4:55 AM 44.6 °F 39.2 °F 42.8 °F 93% 29.85 in 7.0 mi West 10.4 mph - N/A Rain Light Rain
5:15 AM 44.6 °F 39.7 °F 44.6 °F 100% 29.85 in 10.0 mi West 9.2 mph - N/A   Drizzle
5:35 AM 44.6 °F 39.7 °F 44.6 °F 100% 29.85 in 7.0 mi West 9.2 mph - N/A Rain Light Rain
5:55 AM 44.6 °F 39.2 °F 44.6 °F 100% 29.86 in 7.0 mi West 10.4 mph - N/A Rain Light Rain
6:15 AM 44.6 °F 39.2 °F 44.6 °F 100% 29.86 in 7.0 mi West 10.4 mph 17.3 mph N/A Rain Light Rain
6:35 AM 46.4 °F 39.8 °F 44.6 °F 93% 29.88 in 10.0 mi NW 16.1 mph 25.3 mph N/A Rain Light Rain
7:15 AM 42.8 °F 37.0 °F 41.0 °F 93% 29.91 in 10.0 mi NNW 10.4 mph 16.1 mph N/A Rain Light Rain
7:35 AM 41.0 °F 35.8 °F 41.0 °F 100% 29.93 in 10.0 mi NNW 8.1 mph 16.1 mph N/A   Drizzle
7:55 AM 41.0 °F 33.5 °F 39.2 °F 93% 29.95 in 10.0 mi NW 13.8 mph 19.6 mph N/A   Overcast
8:15 AM 39.2 °F 30.5 °F 35.6 °F 87% 29.97 in 10.0 mi NNW 16.1 mph 21.9 mph N/A   Overcast
8:35 AM 37.4 °F 29.8 °F 33.8 °F 87% 29.99 in 10.0 mi NNW 11.5 mph 21.9 mph N/A   Overcast
8:55 AM 37.4 °F 30.3 °F 33.8 °F 87% 30.00 in 10.0 mi NNW 10.4 mph 19.6 mph N/A   Overcast
9:15 AM 37.4 °F 29.8 °F 33.8 °F 87% 30.01 in 10.0 mi NNW 11.5 mph 19.6 mph N/A   Overcast
9:35 AM 35.6 °F 27.1 °F 32.0 °F 87% 30.03 in 10.0 mi NNW 12.7 mph 18.4 mph N/A   Overcast
9:55 AM 35.6 °F 29.2 °F 32.0 °F 87% 30.04 in 10.0 mi NNW 8.1 mph 18.4 mph N/A   Overcast
10:15 AM 35.6 °F 26.2 °F 32.0 °F 87% 30.05 in 10.0 mi NW 15.0 mph 21.9 mph N/A   Overcast
10:35 AM 35.6 °F 26.2 °F 32.0 °F 87% 30.06 in 10.0 mi NNW 15.0 mph 20.7 mph N/A   Overcast
10:55 AM 35.6 °F 26.2 °F 32.0 °F 87% 30.07 in 10.0 mi NNW 15.0 mph 18.4 mph N/A   Overcast
11:15 AM 35.6 °F 28.6 °F 32.0 °F 87% 30.08 in 10.0 mi NNW 9.2 mph 23.0 mph N/A   Overcast
11:35 AM 35.6 °F 27.1 °F 32.0 °F 87% 30.09 in 10.0 mi NNW 12.7 mph 19.6 mph N/A   Overcast
11:55 AM 35.6 °F 26.6 °F 32.0 °F 87% 30.10 in 10.0 mi NNW 13.8 mph 20.7 mph N/A   Overcast
12:15 PM 35.6 °F 27.1 °F 32.0 °F 87% 30.11 in 10.0 mi NW 12.7 mph 19.6 mph N/A   Overcast
12:35 PM 35.6 °F 27.5 °F 32.0 °F 87% 30.12 in 10.0 mi NW 11.5 mph 21.9 mph N/A   Overcast
12:55 PM 35.6 °F 28.6 °F 32.0 °F 87% 30.11 in 10.0 mi NW 9.2 mph 18.4 mph N/A   Overcast
1:15 PM 35.6 °F 27.1 °F 32.0 °F 87% 30.12 in 10.0 mi NW 12.7 mph 18.4 mph N/A   Overcast
1:35 PM 35.6 °F 29.2 °F 32.0 °F 87% 30.12 in 10.0 mi NW 8.1 mph - N/A   Overcast
1:55 PM 35.6 °F 29.2 °F 32.0 °F 87% 30.12 in 10.0 mi NNW 8.1 mph - N/A   Overcast
2:15 PM 35.6 °F 29.2 °F 32.0 °F 87% 30.13 in 10.0 mi NNW 8.1 mph 17.3 mph N/A   Overcast
2:35 PM 35.6 °F 27.1 °F 32.0 °F 87% 30.14 in 10.0 mi NNW 12.7 mph 17.3 mph N/A   Overcast
2:55 PM 35.6 °F 28.6 °F 30.2 °F 81% 30.14 in 10.0 mi NNW 9.2 mph 17.3 mph N/A   Overcast
3:15 PM 35.6 °F 28.0 °F 32.0 °F 87% 30.14 in 10.0 mi North 10.4 mph - N/A   Overcast
3:35 PM 35.6 °F 28.0 °F 30.2 °F 81% 30.15 in 10.0 mi NNW 10.4 mph - N/A   Overcast
3:55 PM 35.6 °F 30.7 °F 30.2 °F 81% 30.16 in 10.0 mi NNW 5.8 mph - N/A   Overcast
4:15 PM 35.6 °F 29.2 °F 30.2 °F 81% 30.17 in 10.0 mi NNW 8.1 mph - N/A   Overcast
4:35 PM 35.6 °F 27.5 °F 30.2 °F 81% 30.18 in 10.0 mi NW 11.5 mph 19.6 mph N/A   Overcast
4:55 PM 33.8 °F 27.0 °F 30.2 °F 87% 30.19 in 10.0 mi NNW 8.1 mph 16.1 mph N/A   Overcast
5:15 PM 33.8 °F 27.0 °F 30.2 °F 87% 30.19 in 10.0 mi NNW 8.1 mph - N/A   Overcast
5:35 PM 33.8 °F 28.6 °F 30.2 °F 87% 30.21 in 10.0 mi NNW 5.8 mph - N/A   Overcast
5:55 PM 33.8 °F 27.7 °F 30.2 °F 87% 30.21 in 10.0 mi NW 6.9 mph - N/A   Overcast
6:15 PM 33.8 °F 27.0 °F 30.2 °F 87% 30.23 in 10.0 mi NW 8.1 mph - N/A   Overcast
6:35 PM 33.8 °F 27.7 °F 30.2 °F 87% 30.23 in 10.0 mi NNW 6.9 mph - N/A   Overcast
6:55 PM 33.8 °F 27.0 °F 30.2 °F 87% 30.24 in 10.0 mi NW 8.1 mph - N/A   Overcast
7:15 PM 33.8 °F 26.4 °F 30.2 °F 87% 30.25 in 10.0 mi NW 9.2 mph - N/A   Overcast
7:35 PM 33.8 °F 28.6 °F 30.2 °F 87% 30.26 in 10.0 mi NNW 5.8 mph - N/A   Overcast
7:55 PM 33.8 °F 29.6 °F 30.2 °F 87% 30.27 in 10.0 mi NNW 4.6 mph - N/A   Overcast
8:15 PM 33.8 °F 28.6 °F 30.2 °F 87% 30.28 in 10.0 mi NW 5.8 mph - N/A   Overcast
8:35 PM 33.8 °F 28.6 °F 30.2 °F 87% 30.29 in 10.0 mi NNW 5.8 mph - N/A   Overcast
8:55 PM 33.8 °F 28.6 °F 30.2 °F 87% 30.29 in 10.0 mi NNW 5.8 mph - N/A   Overcast
9:15 PM 33.8 °F 28.6 °F 30.2 °F 87% 30.30 in 10.0 mi NNW 5.8 mph - N/A   Overcast
9:35 PM 33.8 °F 27.7 °F 28.4 °F 81% 30.29 in 10.0 mi North 6.9 mph - N/A   Overcast
9:55 PM 33.8 °F 27.7 °F 28.4 °F 81% 30.30 in 10.0 mi NNW 6.9 mph - N/A   Overcast
10:15 PM 33.8 °F 29.6 °F 30.2 °F 87% 30.31 in 10.0 mi NNW 4.6 mph - N/A   Overcast
10:35 PM 33.8 °F 28.6 °F 30.2 °F 87% 30.31 in 10.0 mi NNW 5.8 mph - N/A   Overcast
10:55 PM 33.8 °F 29.6 °F 30.2 °F 87% 30.30 in 10.0 mi North 4.6 mph - N/A   Overcast
11:15 PM 33.8 °F 29.6 °F 30.2 °F 87% 30.31 in 10.0 mi North 4.6 mph - N/A   Overcast
11:35 PM 33.8 °F 30.8 °F 28.4 °F 81% 30.32 in 10.0 mi NNE 3.5 mph - N/A   Overcast
11:55 PM 33.8 °F 29.6 °F 28.4 °F 81% 30.32 in 10.0 mi NE 4.6 mph - N/A   Overcast